Providence, RI

2:48 AM EDT on March 30, 2017 (GMT -0400)
Green State

Weather History for KPVD - December, 2012

Change the Weather History Date:

Saturday, December 1, 2012

  Actual Average Record
Temperature  
Mean Temperature 33 °F 39 °F  
Max Temperature 36 °F 47 °F 71 °F (2001)
Min Temperature 29 °F 31 °F 10 °F (1936)
Degree Days  
Heating Degree Days 32 26  
Month to date heating degree days 32 26  
Since 1 July heating degree days 1057 1101  
Cooling Degree Days 0 0  
Month to date cooling degree days 0 0  
Year to date cooling degree days 834 744  
Moisture  
Dew Point 28 °F    
Average Humidity 73    
Maximum Humidity 89    
Minimum Humidity 56    
Precipitation  
Precipitation 0.02 in 0.15 in 1.37 in (2004)
Month to date precipitation 0.02 0.15  
Year to date precipitation 35.66 43.11  
Snow  
Snow 0.30 in 0.20 in 0.50 in (1907)
Month to date snowfall 0.3 0.2  
Since 1 July snowfall 1.6 1.7  
Snow Depth 0.00 in    
Sea Level Pressure  
Sea Level Pressure 30.56 in    
Wind  
Wind Speed 7 mph (NNE)    
Max Wind Speed 10 mph    
Max Gust Speed 13 mph    
Visibility 7 miles    
Events Snow    
T = Trace of Precipitation, MM = Missing Value Source: NWS Daily Summary

Daily Weather History Graph

Daily Weather History Graph

Search for Another Location

Airport or City:

Trip Planner

Search our weather history database for the weather conditions in past years. The results will help you decide how hot, cold, wet, or windy it might be!

Date:

Astronomy

Dec. 01, 2012 Rise Set
Actual Time 6:53 AM EST 4:15 PM EST
Civil Twilight 6:22 AM EST 4:46 PM EST
Nautical Twilight 5:48 AM EST 5:21 PM EST
Astronomical Twilight 5:14 AM EST 5:55 PM EST
Moon 7:03 PM EST (12/1) 9:04 AM EST (12/1)
Length of Visible Light 10h 24m
Length of Day
9h 22m
Waning Gibbous, 92% of the Moon is Illuminated
Dec 1
Waning Gibbous
Dec 6
Last Quarter
Dec 13
New
Dec 20
First Quarter
Dec 28
Full

Hourly Weather History & Observations

Time (EST) Temp. Windchill Dew Point Humidity Pressure Visibility Wind Dir Wind Speed Gust Speed Precip Events Conditions
12:51 AM 32.0 °F 24.8 °F 19.0 °F 59% 30.55 in 10.0 mi NE 8.1 mph - N/A   Overcast
1:51 AM 33.1 °F 25.5 °F 19.0 °F 56% 30.55 in 10.0 mi NE 9.2 mph - N/A   Overcast
2:51 AM 33.1 °F 26.1 °F 19.0 °F 56% 30.55 in 10.0 mi NNE 8.1 mph - N/A   Overcast
3:51 AM 30.9 °F 22.8 °F 24.1 °F 76% 30.55 in 5.0 mi NNE 9.2 mph - 0.00 in Snow Light Snow
5:51 AM 30.0 °F 24.1 °F 26.1 °F 85% 30.56 in 9.0 mi North 5.8 mph - 0.00 in Snow Light Snow
6:51 AM 30.0 °F 23.2 °F 25.0 °F 82% 30.58 in 10.0 mi North 6.9 mph - 0.00 in   Overcast
7:37 AM 30.2 °F 20.2 °F 24.8 °F 80% 30.60 in 2.5 mi North 12.7 mph - 0.00 in Snow Light Snow
7:51 AM 28.9 °F 19.8 °F 24.1 °F 82% 30.61 in 2.5 mi North 10.4 mph - 0.00 in Snow Light Snow
7:55 AM 28.4 °F 19.7 °F 24.8 °F 86% 30.60 in 1.2 mi NNE 9.2 mph - 0.00 in Snow Light Snow
8:48 AM 28.4 °F 19.7 °F 26.6 °F 93% 30.61 in 2.5 mi North 9.2 mph - 0.01 in Snow Light Snow
8:51 AM 30.0 °F 21.7 °F 26.1 °F 85% 30.61 in 2.5 mi North 9.2 mph - 0.01 in Snow Light Snow
9:51 AM 30.9 °F 23.5 °F 27.0 °F 85% 30.61 in 3.0 mi NNE 8.1 mph - 0.01 in Snow Light Snow
10:51 AM 32.0 °F 24.8 °F 28.0 °F 85% 30.60 in 7.0 mi NNE 8.1 mph - 0.00 in Snow Light Snow
10:58 AM 32.0 °F 25.6 °F 28.4 °F 87% 30.58 in 7.0 mi NNE 6.9 mph - 0.00 in Snow Light Snow
11:32 AM 32.0 °F 24.2 °F 28.4 °F 87% 30.56 in 2.0 mi NNE 9.2 mph - 0.00 in Snow Light Snow
11:40 AM 32.0 °F 24.2 °F 28.4 °F 87% 30.56 in 4.0 mi NNE 9.2 mph - 0.00 in Snow Light Snow
11:44 AM 33.8 °F 26.4 °F 28.4 °F 81% 30.56 in 2.5 mi NNE 9.2 mph - 0.00 in Snow Light Snow
11:51 AM 33.1 °F 25.5 °F 30.0 °F 89% 30.56 in 2.5 mi North 9.2 mph - 0.00 in Snow Light Snow
12:18 PM 33.8 °F 26.4 °F 30.2 °F 87% 30.55 in 2.5 mi NNE 9.2 mph - 0.00 in Snow Light Snow
12:51 PM 33.1 °F 26.1 °F 30.0 °F 89% 30.55 in 9.0 mi NNE 8.1 mph - 0.00 in   Overcast
1:51 PM 33.1 °F 26.1 °F 30.0 °F 89% 30.55 in 10.0 mi NNE 8.1 mph - N/A   Overcast
2:51 PM 33.1 °F 26.1 °F 30.0 °F 89% 30.54 in 10.0 mi NNE 8.1 mph - N/A   Overcast
3:30 PM 33.8 °F 27.0 °F 30.2 °F 87% 30.55 in 10.0 mi NNE 8.1 mph - N/A   Overcast
3:51 PM 34.0 °F 28.0 °F 30.0 °F 85% 30.54 in 10.0 mi NNE 6.9 mph - N/A   Overcast
4:51 PM 34.0 °F 28.0 °F 30.9 °F 89% 30.54 in 10.0 mi NNE 6.9 mph - N/A   Overcast
5:51 PM 34.0 °F 28.0 °F 30.9 °F 89% 30.56 in 10.0 mi North 6.9 mph - N/A   Mostly Cloudy
6:17 PM 33.8 °F 28.6 °F 30.2 °F 87% 30.56 in 10.0 mi North 5.8 mph - N/A   Overcast
6:51 PM 34.0 °F 28.0 °F 30.9 °F 89% 30.55 in 10.0 mi NNE 6.9 mph - N/A   Overcast
7:19 PM 33.8 °F 28.6 °F 30.2 °F 87% 30.54 in 8.0 mi North 5.8 mph - N/A   Overcast
7:51 PM 34.0 °F 28.0 °F 30.9 °F 89% 30.53 in 6.0 mi NNE 6.9 mph - N/A   Overcast
8:51 PM 35.1 °F 30.1 °F 32.0 °F 89% 30.53 in 7.0 mi North 5.8 mph - N/A   Overcast
9:04 PM 35.6 °F 29.2 °F 32.0 °F 87% 30.52 in 7.0 mi North 8.1 mph - N/A   Overcast
9:42 PM 35.6 °F 29.9 °F 30.2 °F 81% 30.52 in 7.0 mi North 6.9 mph - N/A   Overcast
9:51 PM 35.1 °F 30.1 °F 30.9 °F 85% 30.52 in 7.0 mi North 5.8 mph - N/A   Overcast
10:51 PM 36.0 °F 32.1 °F 32.0 °F 86% 30.49 in 7.0 mi NNE 4.6 mph - N/A   Overcast
11:51 PM 36.0 °F 31.1 °F 32.0 °F 86% 30.48 in 9.0 mi NNE 5.8 mph - N/A   Overcast